Hourly Data Report for September 03, 2017

All times are specified in Local Standard Time (LST). Add 1 hour to adjust for Daylight Saving Time where and when it is observed.

RANKIN INLET A
NUNAVUT

62°48'38.000" N
92°06'53.000" W
32.30 m
2303405
71083
YRT

Download Data

Hourly Data (September 2017)
Hourly Data Report for September 3, 2017
Temp Definition
°C
Dew Point Temp Definition
°C
Rel Hum Definition
%
Wind Dir Definition
10's deg

Wind Spd Definition
km/h
Visibility Definition
km
Stn Press Definition
kPa
Hmdx Definition


Wind Chill Definition


Weather Definition


TIME
00:00 Legend Double Dagger 5.3 4.0 91 2 63 24.1 98.86     Snow
01:00 Legend Double Dagger 5.3 4.2 93 2 55 24.1 98.86     LegendNANA
02:00 Legend Double Dagger 5.4 4.3 93 1 57 24.1 98.88     LegendNANA
03:00 Legend Double Dagger 5.6 4.4 92 2 49 24.1 98.92     Cloudy
04:00 Legend Double Dagger 5.7 4.5 91 2 50 24.1 98.93     LegendNANA
05:00 Legend Double Dagger 5.8 4.5 91 2 45 24.1 98.95     LegendNANA
06:00 Legend Double Dagger 5.9 4.5 91 2 54 24.1 98.93     Cloudy
07:00 Legend Double Dagger 6.3 4.8 90 2 50 24.1 98.95     LegendNANA
08:00 Legend Double Dagger 6.2 4.7 90 2 57 24.1 98.97     LegendNANA
09:00 Legend Double Dagger 6.3 4.8 90 3 48 24.1 99.03     Cloudy
10:00 Legend Double Dagger 6.5 5.0 90 2 49 24.1 99.08     LegendNANA
11:00 Legend Double Dagger 6.7 5.5 92 3 50 16.1 99.09     LegendNANA
12:00 Legend Double Dagger 7.3 5.8 90 2 50 16.1 99.16     Cloudy
13:00 Legend Double Dagger 7.5 6.2 91 3 48 16.1 99.23     LegendNANA
14:00 Legend Double Dagger 7.9 6.5 91 4 43 12.9 99.32     LegendNANA
15:00 Legend Double Dagger 7.8 6.5 91 4 43 16.1 99.44     Cloudy
16:00 Legend Double Dagger 7.5 6.4 93 3 48 16.1 99.53     LegendNANA
17:00 Legend Double Dagger 7.5 6.2 91 3 46 16.1 99.60     LegendNANA
18:00 Legend Double Dagger 7.4 5.8 89 3 48 16.1 99.68     Cloudy
19:00 Legend Double Dagger 7.2 5.3 88 3 50 19.3 99.78     LegendNANA
20:00 Legend Double Dagger 6.9 5.0 88 3 48 24.1 99.84     LegendNANA
21:00 Legend Double Dagger 6.8 3.5 79 4 42 24.1 99.91     Mostly Cloudy
22:00 Legend Double Dagger 6.1 2.7 79 3 35 24.1 99.97     LegendNANA
23:00 Legend Double Dagger 5.8 2.0 77 2 30 24.1 100.04     LegendNANA

Notes on Data Quality.

Legend

  • E = Estimated
  • M = Missing
  • NA = Not Available
  • ‡ = Partner data that is not subject to review by the National Climate Archives
Date modified: